sat.trackr.live / text

‹ back to catalog

STARLINK-35499

NORAD 66462 · 2025-262G

PAYLOAD ACTIVE UNKNOWN

§ Identity

Operator
Country
US
Launch date
2025-11-15
Launch site
AFETR
Launch vehicle
Mass (kg)
RCS (m²)

Purposes: comms

External: N2YO · Heavens-Above · Gunter

§ Orbital elements

Epoch: 2026-09-20T08:53:21.440256Z

Period
94.27 min
Inclination
43.0023°
Eccentricity
0.0001266
Mean motion
15.27550707 rev/d
Perigee alt
482.3 km
Apogee alt
484.0 km
Semi-major
6,861.3 km
B*
6.2256e-6
RAAN
276.4326°
Arg perigee
261.1858°
Mean anomaly
98.8850°
Rev number
4,868

§ Raw data

STARLINK-354991 66462U 25262G   26263.37038704 -.00000091  00000+0  62256-5 0  99982 66462  43.0023 276.4326 0001266 261.1858  98.8850 15.27550707 48687

JSON: /api/v1/satellites/66462 · /tle

For live sub-satellite position, see the globe view (requires WebGL).

§ Visibility from observer

Set your observer location to see the next 7 days of passes ≥ 10°. The values pass through the URL so the page stays shareable.

No JS? Fill the form by hand. The geolocation button needs JavaScript.